POLARIS DAWN

Last updated on Sun Sep 15 2024 00:02:06 GMT+0000 (Coordinated Universal Time)

1 61042U 24161A 24258.29537251 .00390353 10092-4 53158-3 0 9996 2 61042 51.6529 7.7858 0386760 63.0083 300.9843 15.37138153 596
UTC large
Height (km)
Speed (km/s)
/
Latitude / Longitude
Inclination (degrees)
Orbital Period (minutes)
Azimuth
Elevation
Range (km)
Doppler Factor

Next 0 passes for location: London (51.5072 / 0.1276)

Sorry there are no passes over London.